[[{"header":{"parameterUnit":"m.s-1","parameterCategory":1,"la1":30.2991,"la2":30.254,"lo1":-89.0895,"lo2":-89.0444,"dy":0.0017,"dx":0.0017,"nx":28,"ny":28,"refTime":"2024-04-20T09:00:00:Z","depth":0,"parameterNumber":2,"parameterNumberName":"U-component_of_WINDS"},"data":[0,0,0,0,0,0,0,0,0,0,0,0,0,0,0,0,0,0,0,0,0,0,0,0,0,0,0,0,0,0,0,0,0,0,0,0,0,0,0,0,0,0,0,0,0,0,0,0,0,0,0,0,0,0,0,0,0,0,1.1144,1.1144,0,1.1158,1.1158,1.1158,1.1152,1.1151,1.1151,1.1151,1.1165,1.1166,1.1166,0,0,0,0,0,0,0,0,0,0,0,0,0,1.1112,1.1113,1.1144,1.1144,1.1144,1.1158,1.1158,1.1158,1.1152,1.1151,1.1151,1.1151,1.1165,1.1165,1.1166,0,0,0,0,0,0,0,0,0,0,0,0,0,1.1126,1.1113,1.1144,1.1143,1.1143,1.1158,1.1158,1.1159,1.1152,1.1151,1.1151,1.115,1.1164,1.1165,1.1166,1.1184,0,0,1.117,1.117,0,0,0,0,0,0,0,0,1.1125,1.1127,1.1143,1.1143,1.1143,1.1153,1.1152,1.1167,1.1152,1.1148,1.1151,1.115,1.1161,1.1162,1.1166,1.1184,1.1185,1.117,1.117,1.1171,1.1171,0,0,0,0,0,0,0,1.1124,1.1127,1.1149,1.1143,1.1143,1.1142,1.1143,1.1155,1.1158,1.1149,1.1148,1.115,1.1161,1.1165,1.1167,1.1185,1.117,1.1171,1.1171,1.1172,1.122,1.1221,0,0,0,0,0,0,1.1123,1.1126,1.1149,1.115,1.1133,1.1143,1.1144,1.115,1.1157,1.1158,1.115,1.115,1.1164,1.1165,1.1167,1.1188,1.1171,1.1172,1.1172,1.122,1.122,1.1221,0,0,0,0,0,0,1.1123,1.1125,1.1148,1.1138,1.1141,1.1144,1.115,1.1151,1.1155,1.1159,1.1159,1.1154,1.1163,1.1166,1.118,1.1189,1.1172,1.1173,1.1219,1.122,1.1221,1.1231,0,0,0,0,0,0,1.1122,1.1125,1.1131,1.1138,1.1141,1.1161,1.1151,1.1151,1.1157,1.1156,1.1162,1.1163,1.1163,1.1179,1.1181,1.119,1.1174,1.1218,1.1219,1.122,1.123,1.1232,1.1234,0,0,0,0,0,1.1121,1.1133,1.1132,1.1134,1.1149,1.1161,1.1163,1.1163,1.1157,1.1164,1.1167,1.1163,1.1188,1.118,1.1183,1.1192,1.1217,1.1219,1.122,1.1229,1.1232,1.1234,0,0,0,0,0,0,1.1126,1.1134,1.1132,1.1147,1.1154,1.116,1.1168,1.1166,1.1174,1.1173,1.1172,1.1174,1.1189,1.1192,1.1184,1.1211,1.1202,1.1204,1.1207,1.121,1.1212,1.1211,1.1175,0,0,0,0,0,1.113,1.1139,1.1145,1.1158,1.1161,1.1164,1.117,1.1169,1.1176,1.1179,1.1183,1.1189,1.1199,1.1205,1.1214,1.1231,1.1233,1.1239,1.1241,1.1243,1.1245,1.1255,1.1258,1.1226,1.1226,1.1226,0,0,1.1136,1.1141,1.1147,1.1159,1.1164,1.1174,1.1166,1.1177,1.1185,1.118,1.1194,1.1198,1.1205,1.1222,1.1229,1.1225,1.1254,1.1245,1.1246,1.1247,1.1257,1.126,1.1263,1.1227,1.1227,1.1227,0,0,1.1152,1.1157,1.1169,1.1175,1.1183,1.1185,1.1188,1.1196,1.1198,1.1212,1.121,1.1219,1.1235,1.1241,1.1246,1.1268,1.1265,1.1271,1.1282,1.1292,1.1295,1.1297,1.1305,1.1308,1.1273,1.1273,1.1273,0,1.1159,1.1174,1.1175,1.1186,1.1192,1.119,1.1202,1.1208,1.1219,1.1223,1.1218,1.124,1.1245,1.1263,1.1269,1.1273,1.1277,1.127,1.1295,1.1297,1.1299,1.1306,1.1309,1.1274,1.1274,1.1274,1.1274,0,1.1182,1.1192,1.1201,1.1212,1.1219,1.1231,1.1235,1.1242,1.1242,1.1245,1.1261,1.1267,1.1278,1.1283,1.1282,1.1301,1.1298,1.1294,1.1285,1.1303,1.131,1.1313,1.1275,1.1275,1.1274,1.1274,0,0,1.1199,1.1213,1.1216,1.1222,1.1232,1.1241,1.1253,1.1265,1.1271,1.1279,1.129,1.1305,1.1302,1.1308,1.1309,1.1318,1.1336,1.1313,1.1313,1.1317,1.1358,1.136,1.1363,1.1334,1.1335,1.1335,1.1357,0,1.1216,1.1238,1.1241,1.126,1.1271,1.1271,1.1282,1.129,1.1294,1.1303,1.1308,1.1319,1.1314,1.1318,1.1327,1.1331,1.1344,1.133,1.1344,1.1345,1.1341,1.1367,1.1369,1.1389,1.136,1.136,1.1361,0,1.1238,1.1248,1.1269,1.128,1.1284,1.1294,1.1305,1.1315,1.1324,1.1327,1.1335,1.1335,1.1349,1.1341,1.136,1.1351,1.1358,1.1361,1.1362,1.1362,1.1353,1.1367,1.1395,1.1398,1.1365,1.1365,1.1364,0,1.1249,1.1268,1.1283,1.1288,1.1301,1.1308,1.1314,1.1323,1.133,1.134,1.1345,1.1357,1.1363,1.1373,1.1377,1.1371,1.1396,1.1388,1.1399,1.1398,1.1402,1.1402,1.1431,1.1408,1.1408,1.1408,1.1408,0,1.1267,1.128,1.1288,1.1297,1.1312,1.1316,1.1331,1.1336,1.1345,1.1356,1.1357,1.1367,1.1372,1.1383,1.1386,1.1402,1.1405,1.1407,1.1408,1.1407,1.1406,1.141,1.1408,1.1409,1.1409,1.1409,1.1409,0,1.1281,1.1287,1.1303,1.1315,1.1319,1.1329,1.1339,1.1348,1.1354,1.1367,1.1371,1.1379,1.1392,1.1397,1.1413,1.1416,1.1434,1.1434,1.1431,1.143,1.144,1.1439,1.1472,1.1476,1.1451,1.1452,1.1452,0,1.1291,1.1301,1.1315,1.1322,1.1328,1.134,1.1348,1.1354,1.1362,1.1375,1.1383,1.1397,1.1407,1.1429,1.1436,1.1449,1.1449,1.146,1.145,1.1449,1.1448,1.1447,1.1449,1.146,1.1461,1.1461,1.1461,0,1.1309,1.1313,1.1324,1.1337,1.1347,1.1357,1.1367,1.1374,1.1381,1.139,1.1404,1.1413,1.143,1.1444,1.1458,1.1464,1.1464,1.1464,1.1467,1.1465,1.1463,1.1464,1.1434,1.1463,1.1463,1.1463,1.1463,1.1463,1.1321,1.1331,1.1342,1.1355,1.1364,1.1374,1.1384,1.1391,1.1403,1.1418,1.1421,1.1436,1.1447,1.1466,1.1473,1.1485,1.1482,1.1487,1.1487,1.1488,1.1489,1.1462,1.1488,1.1488,1.1488,1.1488,1.1487,0,1.1339,1.1347,1.136,1.1374,1.1385,1.1386,1.1398,1.1406,1.142,1.1431,1.1442,1.1459,1.1473,1.1482,1.1497,1.1505,1.1505,1.1508,1.1507,1.1509,1.149,1.1486,1.1508,1.1508,1.1508,1.1508,1.1508,1.1508,1.135,1.1366,1.1371,1.1392,1.14,1.1415,1.1422,1.1431,1.144,1.1459,1.1471,1.1478,1.1488,1.1504,1.1517,1.1519,1.1524,1.1527,1.1529,1.1512,1.151,1.1508,1.1504,1.1528,1.1528,1.1546,1.1547,1.1547]},{"header":{"parameterUnit":"m.s-1","parameterCategory":1,"la1":30.2991,"la2":30.254,"lo1":-89.0895,"lo2":-89.0444,"dy":0.0017,"dx":0.0017,"nx":28,"ny":28,"refTime":"2024-04-20T09:00:00:Z","depth":0,"parameterNumber":3,"parameterNumberName":"V-component_of_WINDS"},"data":[0,0,0,0,0,0,0,0,0,0,0,0,0,0,0,0,0,0,0,0,0,0,0,0,0,0,0,0,0,0,0,0,0,0,0,0,0,0,0,0,0,0,0,0,0,0,0,0,0,0,0,0,0,0,0,0,0,0,1.7817,1.7818,0,1.79,1.7901,1.7902,1.7899,1.7898,1.7897,1.7896,1.798,1.7983,1.7986,0,0,0,0,0,0,0,0,0,0,0,0,0,1.7651,1.7654,1.7817,1.7818,1.7819,1.79,1.7901,1.7903,1.7899,1.7898,1.7897,1.7895,1.7979,1.7983,1.7987,0,0,0,0,0,0,0,0,0,0,0,0,0,1.7728,1.7655,1.7817,1.7827,1.7829,1.79,1.7901,1.7903,1.79,1.7898,1.7896,1.7895,1.7977,1.7982,1.7987,1.8053,0,0,1.8002,1.8004,0,0,0,0,0,0,0,0,1.7723,1.7734,1.7825,1.7827,1.7829,1.7888,1.7874,1.7953,1.79,1.7873,1.7896,1.7894,1.795,1.7957,1.7977,1.8057,1.806,1.8003,1.8006,1.8008,1.8009,0,0,0,0,0,0,0,1.7718,1.773,1.785,1.7826,1.7829,1.7827,1.7836,1.7889,1.792,1.7875,1.7875,1.7885,1.7951,1.7972,1.7979,1.8061,1.8003,1.8007,1.801,1.8012,1.8195,1.8197,0,0,0,0,0,0,1.7711,1.7726,1.7847,1.7852,1.7771,1.7831,1.7841,1.787,1.792,1.7926,1.7886,1.7885,1.7964,1.7973,1.7982,1.806,1.8008,1.8013,1.8015,1.8193,1.8196,1.8198,0,0,0,0,0,0,1.7707,1.7722,1.7844,1.7789,1.7805,1.7836,1.7869,1.7873,1.7894,1.7928,1.7934,1.7902,1.7963,1.7975,1.8034,1.8063,1.8015,1.8019,1.8191,1.8194,1.8197,1.8218,0,0,0,0,0,0,1.7703,1.7721,1.7747,1.779,1.7808,1.7897,1.7871,1.7876,1.7903,1.7901,1.7945,1.795,1.7963,1.8027,1.8039,1.8069,1.8023,1.8189,1.8192,1.8196,1.8215,1.8221,1.8226,0,0,0,0,0,1.7697,1.775,1.7748,1.7763,1.7841,1.7898,1.7908,1.7922,1.7905,1.7931,1.7952,1.7949,1.8057,1.8033,1.8047,1.8078,1.8187,1.8191,1.8195,1.8212,1.822,1.8226,0,0,0,0,0,0,1.7711,1.7756,1.7755,1.7824,1.7857,1.7898,1.7931,1.793,1.7969,1.7966,1.7981,1.7991,1.805,1.807,1.8042,1.8143,1.812,1.8127,1.8128,1.8135,1.8141,1.8135,1.8027,0,0,0,0,0,1.7721,1.7765,1.7802,1.7859,1.7876,1.79,1.7926,1.7933,1.7968,1.7982,1.8008,1.8042,1.8083,1.811,1.815,1.8217,1.8225,1.8245,1.8251,1.8256,1.8262,1.8296,1.8305,1.8212,1.8212,1.8211,0,0,1.7745,1.7775,1.7802,1.7862,1.7889,1.7932,1.7912,1.796,1.7991,1.7989,1.8047,1.8067,1.8105,1.8167,1.8196,1.8186,1.8289,1.8261,1.8264,1.8268,1.8301,1.831,1.8318,1.8214,1.8214,1.8213,0,0,1.7809,1.7837,1.7887,1.7913,1.7953,1.7969,1.798,1.8021,1.8034,1.8092,1.809,1.8127,1.8199,1.8225,1.8248,1.8318,1.8315,1.833,1.8361,1.8394,1.8402,1.8408,1.8432,1.844,1.8336,1.8336,1.8336,0,1.7833,1.7899,1.7912,1.7959,1.7985,1.7984,1.8033,1.8058,1.8109,1.8126,1.8114,1.8201,1.8227,1.8295,1.8312,1.833,1.8343,1.8326,1.84,1.8406,1.8413,1.8435,1.8444,1.8338,1.8338,1.8338,1.8338,0,1.7926,1.7971,1.8006,1.8055,1.8084,1.8132,1.815,1.8178,1.8182,1.8198,1.8255,1.8286,1.8331,1.8347,1.8352,1.8415,1.8407,1.8397,1.8374,1.8423,1.8444,1.8453,1.834,1.834,1.8339,1.8339,0,0,1.8004,1.8057,1.8069,1.809,1.8133,1.8168,1.8214,1.8257,1.828,1.8314,1.8353,1.8411,1.8401,1.8427,1.8434,1.8463,1.8515,1.845,1.8451,1.846,1.8583,1.859,1.86,1.8512,1.8514,1.8515,1.858,0,1.8072,1.8155,1.8167,1.8239,1.828,1.8278,1.8318,1.8347,1.8362,1.8398,1.8414,1.8455,1.844,1.8455,1.8484,1.8502,1.8539,1.8498,1.8547,1.8548,1.8538,1.8612,1.862,1.868,1.8588,1.859,1.8591,0,1.8164,1.82,1.8277,1.8311,1.8328,1.8364,1.8403,1.8438,1.847,1.8479,1.8506,1.8508,1.8554,1.8528,1.859,1.8562,1.8582,1.8593,1.8596,1.8601,1.8573,1.8619,1.8699,1.8708,1.8604,1.8603,1.8602,0,1.8212,1.8279,1.8333,1.8351,1.8393,1.8418,1.8436,1.8466,1.8491,1.8525,1.854,1.8579,1.86,1.8629,1.8641,1.8622,1.8701,1.8678,1.8709,1.8709,1.8727,1.8726,1.8811,1.874,1.874,1.874,1.8739,0,1.8288,1.8334,1.8355,1.8389,1.844,1.8451,1.8501,1.8518,1.8544,1.8579,1.8579,1.8612,1.8626,1.866,1.867,1.8718,1.8728,1.8735,1.8737,1.8736,1.8735,1.875,1.8746,1.8742,1.8741,1.8741,1.8741,0,1.8351,1.8367,1.8425,1.8459,1.8468,1.8504,1.8532,1.8563,1.8577,1.8621,1.8632,1.8653,1.8693,1.8708,1.8757,1.8763,1.8819,1.8817,1.8808,1.8809,1.8839,1.8835,1.8937,1.895,1.887,1.8871,1.8872,0,1.8398,1.8434,1.847,1.8494,1.8513,1.8551,1.8575,1.8586,1.8611,1.8649,1.8675,1.8714,1.8747,1.881,1.8829,1.8866,1.8865,1.8898,1.8871,1.8867,1.8864,1.8862,1.8865,1.8903,1.8904,1.8905,1.8905,0,1.848,1.8485,1.8521,1.8558,1.8587,1.8617,1.8646,1.8665,1.868,1.8708,1.8749,1.8774,1.8822,1.8861,1.8898,1.8915,1.8912,1.8913,1.8922,1.8921,1.8914,1.8917,1.8822,1.8911,1.8911,1.891,1.891,1.891,1.8536,1.8566,1.8596,1.8635,1.8657,1.8684,1.8714,1.873,1.8765,1.8805,1.8809,1.8852,1.888,1.8929,1.8948,1.898,1.8971,1.8985,1.8988,1.8991,1.8993,1.8908,1.8987,1.8987,1.8987,1.8987,1.8987,0,1.8617,1.8635,1.867,1.871,1.874,1.8734,1.8765,1.879,1.8828,1.8855,1.8886,1.8931,1.8967,1.8988,1.9024,1.9046,1.9046,1.9055,1.9054,1.9057,1.9,1.8988,1.9055,1.9055,1.9055,1.9055,1.9055,1.9055,1.8662,1.8713,1.8721,1.8782,1.88,1.8842,1.886,1.8883,1.8904,1.8955,1.8985,1.8998,1.9021,1.9058,1.9091,1.9096,1.9109,1.9119,1.9123,1.9069,1.9062,1.9055,1.9044,1.9122,1.9122,1.9178,1.9178,1.9179]}]]